Location: *
(51.1248°S, 108.4023°W)
Time: 22:04:20
(UTC+00:00)

Cosmos 2278 Rocket - Pass Details

Date: 28 October 2021
Orbit: 841 x 845 km, 71.0° (Epoch: 30 November)

Event Time Altitude Azimuth Distance (km) Brightness Sun altitude
Exits shadow 07:15:15 23° 279° (W) 1,761 3.7 -25.5°
Maximum altitude 07:18:12 37° 227° (SW) 1,308 3.4 -25.5°
Drops below altitude 10° 07:23:30 10° 160° (SSE) 2,499 5.6 -25.4°
Sets 07:26:10 0° 151° (SSE) 3,440 6.5 -25.3°
